STARLINK-11564, 62913

Orbit data source: Space-Track

STARLINK-11564, 62913 is a payload satellite owned by SpaceX/Seattle (US) in LEO that was launched on Sat, 08 Feb 2025 UTC via an FALCON 9 launch vehicle from the Air Force Eastern Test Range (AFETR). Payload-class satellites include a variety of spacecraft equipped with specific instruments for various scientific and technological missions. These include communications satellites like Starlink; space stations such as the ISS; scientific satellites like the Hubble; Earth observation satellites from companies like Planet Labs, Umbra, and HawkEye 360; GPS; miniature CubeSats for education and research; and military/defense satellites.

Loading next visibility...
Identifier
62913, 2025-027G
Orbit
LEO
Country
Flag of USUS
Related business
Manufacturer
SpaceX/Seattle
Mission
Operational Commercial Communications
Bus & Motor
STARLINK V2MD, Unknown motor
Mass
960 kg wet, ~910 kg dry
Launch date (UTC)
2025-02-08 (8 months ago)
Launch vehicle
FALCON 9
Launch site
Air Force Eastern Test Range (AFETR)
Object type
Payload
Rocket body
Debris
Shape & HBR
Box + 2 Pan, 18.1 m
Radar Cross Section
36.964 m², Large (>1 m²)

Expand to show TLE details & history
Last TLE update: 9 hours ago

TLE from 9 hours ago
0 STARLINK-11564
1 62913U 25027G   25286.64472958  .00010348  00000-0  84053-4 0  9995
2 62913  43.0001 154.1925 0001725 264.0129  96.0542 15.70836089 40026
Epoch: 2025-10-13T15:28Z
TLE epoch observation values (Epoch: 2025-10-13T15:28:24.635Z)
Latitude
-0.00003°
Longitude
-100.35472°
Altitude
356.4 km
Speed
7.697 km/s
True Right ascension
10h 16m 46s
True Declination
0° 00' 00"
Sunlit
Object was in daylight at epoch
Visualization orbit readout
Latitude
Unknown
Longitude
Unknown
Altitude
Unknown
Speed
Unknown
Apparent Right ascension
Unknown
Apparent Declination
Unknown
Sunlit
N/A
Visualization observer readout
Local Sidereal Time
19:17:49
Azimuth
Unknown
Elevation
Unknown
Doppler factor
Unknown
Orbital elements
Apogee altitude
359.65 km
Perigee altitude
357.326 km
Semi-major axis
6,736.625 km
Eccentricity
0.00017
Inclination
43.0001°
RAAN
154.1925°
Arg. of periapsis
264.0129°
True anomaly
96.07386°
Mean anomaly
96.0542°
Eccentric anomaly
96.06403°
Mean motion
3.92536 °/min
Orbital period
91.71 mins
BSTAR
0.000084053
Loading maneuver chart data...
Computing Atmospheric mass density...
Loading historical data...
Loading historical data...
Loading historical data...
Loading historical data...
Loading historical data...
Loading historical data...
Loading historical data...

Documentation

Showing up to 5 results
|